Location: Sauerland
(51.1981°N, 7.8053°E)
Time: 09:30:17
(UTC+02:00)

ISS - Visible Passes

Search period start: 09 May 2021 00:00
Search period end: 19 May 2021 00:00
Orbit: 418 x 421 km, 51.6° (Epoch: 09 May)

Date Brightness Start Highest point End Pass type
(mag) Time Alt. Az. Time Alt. Az. Time Alt. Az.
09 May -1.9 02:03:26 23° E 02:03:26 23° E 02:04:56 10° E visible
09 May -3.8 03:36:22 22° W 03:38:24 84° N 03:41:48 10° E visible
10 May -3.9 02:50:22 58° WSW 02:50:58 88° SSE 02:54:21 10° E visible
10 May -3.8 04:24:26 10° W 04:27:50 90° NW 04:31:13 10° E visible
11 May -3.2 02:04:20 48° E 02:04:20 48° E 02:06:55 10° E visible
11 May -3.7 03:37:16 12° W 03:40:23 83° N 03:43:46 10° E visible
12 May -1.8 01:18:15 20° E 01:18:15 20° E 01:19:27 10° E visible
12 May -3.7 02:51:10 26° W 02:52:55 80° N 02:56:18 10° E visible
12 May -3.8 04:26:23 10° W 04:29:43 62° SSW 04:33:05 10° ESE visible
13 May -3.8 02:05:00 64° W 02:05:27 83° N 02:08:51 10° E visible
13 May -3.9 03:38:56 10° W 03:42:19 78° SSW 03:45:42 10° ESE visible
14 May -3.5 01:18:36 57° E 01:18:36 57° E 01:21:23 10° E visible
14 May -3.8 02:51:29 10° W 02:54:52 90° ESE 02:58:15 10° E visible
14 May -3.1 04:28:23 10° W 04:31:30 34° SSW 04:34:36 10° SE visible
14 May -2.7 22:51:18 10° SSW 22:54:03 24° SE 22:55:35 17° ESE visible
15 May -3.9 00:27:11 10° WSW 00:30:32 76° SSE 00:33:55 10° E visible
15 May -3.8 02:04:00 10° W 02:07:24 83° N 02:10:47 10° E visible
15 May -3.6 03:40:52 10° W 03:44:08 47° SSW 03:47:24 10° SE visible
15 May -2.2 22:04:32 10° S 22:06:47 17° SE 22:09:02 10° E visible
15 May -3.8 23:39:47 10° WSW 23:43:07 60° SSE 23:46:28 10° E visible
16 May -3.7 01:16:32 10° W 01:19:55 80° N 01:23:19 10° E visible
16 May -3.8 02:53:23 10° W 02:56:44 62° SSW 03:00:04 10° ESE visible
16 May -2.2 04:30:44 10° W 04:33:05 18° SW 04:35:26 10° S visible
16 May -3.5 22:52:29 10° SW 22:55:42 45° SSE 22:58:58 10° E visible
17 May -3.8 00:29:03 10° W 00:32:26 83° N 00:35:50 10° E visible
17 May -3.9 02:05:55 10° W 02:09:18 77° SSW 02:12:40 10° ESE visible
17 May -2.7 03:42:58 10° W 03:45:47 25° SW 03:48:37 10° SSE visible
17 May -3.0 22:05:17 10° SW 22:08:21 33° SSE 22:11:26 10° E visible
17 May -3.8 23:41:35 10° WSW 23:44:58 89° S 23:48:21 10° E visible
18 May -3.9 01:18:26 10° W 01:21:50 90° SSW 01:22:50 43° E visible
18 May -1.3 02:55:21 10° W 02:55:43 12° W 02:55:43 12° W visible
18 May -3.9 22:54:08 10° WSW 22:57:30 76° SSE 23:00:53 10° E visible
